Time,TemperatureF,DewpointF,PressureIn,WindDirection,WindDirectionDegrees,WindSpeedMPH,WindSpeedGustMPH,Humidity,HourlyPrecipIn,Conditions,Clouds,dailyrainin,SoftwareType,DateUTC
2013-10-01 00:01:00,58.5,37.8,29.53,North,-999,-999.0,0.0,46,0.00,,,0.00,LWC V2.10 B1813,2013-10-01 06:01:00,
2013-10-01 00:06:00,58.5,38.3,29.53,North,-999,-999.0,0.0,47,0.00,,,0.00,LWC V2.10 B1813,2013-10-01 06:06:00,
2013-10-01 00:11:00,58.3,38.2,29.53,North,-999,-999.0,0.0,47,0.00,,,0.00,LWC V2.10 B1813,2013-10-01 06:11:00,
2013-10-01 00:16:00,58.2,38.1,29.53,North,-999,-999.0,0.0,47,0.00,,,0.00,LWC V2.10 B1813,2013-10-01 06:16:00,
2013-10-01 00:21:00,58.0,37.9,29.53,North,-999,-999.0,0.0,47,0.00,,,0.00,LWC V2.10 B1813,2013-10-01 06:21:00,
2013-10-01 00:26:00,57.9,37.8,29.53,North,-999,-999.0,0.0,47,0.00,,,0.00,LWC V2.10 B1813,2013-10-01 06:26:00,
2013-10-01 00:31:00,57.7,37.6,29.53,North,-999,-999.0,0.0,47,0.00,,,0.00,LWC V2.10 B1813,2013-10-01 06:31:00,
2013-10-01 00:36:00,57.6,37.5,29.53,North,-999,-999.0,0.0,47,0.00,,,0.00,LWC V2.10 B1813,2013-10-01 06:36:00,
2013-10-01 00:41:00,57.6,37.5,29.53,North,-999,-999.0,0.0,47,0.00,,,0.00,LWC V2.10 B1813,2013-10-01 06:41:00,
2013-10-01 00:46:00,57.5,38.0,29.53,North,-999,-999.0,0.0,48,0.00,,,0.00,LWC V2.10 B1813,2013-10-01 06:46:00,
2013-10-01 00:51:00,57.4,37.3,29.53,North,-999,-999.0,0.0,47,0.00,,,0.00,LWC V2.10 B1813,2013-10-01 06:51:00,
2013-10-01 00:56:00,57.3,36.7,29.53,North,-999,-999.0,0.0,46,0.00,,,0.00,LWC V2.10 B1813,2013-10-01 06:56:00,
2013-10-01 01:01:00,57.2,37.2,29.53,North,-999,-999.0,0.0,47,0.00,,,0.00,LWC V2.10 B1813,2013-10-01 07:01:00,
2013-10-01 01:06:00,57.1,37.1,29.53,North,-999,-999.0,0.0,47,0.00,,,0.00,LWC V2.10 B1813,2013-10-01 07:06:00,
2013-10-01 01:11:00,56.9,36.9,29.53,North,-999,-999.0,0.0,47,0.00,,,0.00,LWC V2.10 B1813,2013-10-01 07:11:00,
2013-10-01 01:16:00,56.7,36.7,29.53,North,-999,-999.0,0.0,47,0.00,,,0.00,LWC V2.10 B1813,2013-10-01 07:16:00,
2013-10-01 01:21:00,56.7,36.7,29.53,North,-999,-999.0,0.0,47,0.00,,,0.00,LWC V2.10 B1813,2013-10-01 07:21:00,
2013-10-01 01:26:00,56.5,37.0,29.53,North,-999,-999.0,0.0,48,0.00,,,0.00,LWC V2.10 B1813,2013-10-01 07:26:00,
2013-10-01 01:31:00,56.5,36.5,29.53,North,-999,-999.0,0.0,47,0.00,,,0.00,LWC V2.10 B1813,2013-10-01 07:31:00,
2013-10-01 01:37:00,56.4,37.5,29.53,North,-999,-999.0,0.0,49,0.00,,,0.00,LWC V2.10 B1813,2013-10-01 07:37:00,
2013-10-01 01:42:00,56.3,37.4,29.53,North,-999,-999.0,0.0,49,0.00,,,0.00,LWC V2.10 B1813,2013-10-01 07:42:00,
2013-10-01 01:47:00,56.2,37.3,29.53,North,-999,-999.0,0.0,49,0.00,,,0.00,LWC V2.10 B1813,2013-10-01 07:47:00,
2013-10-01 01:52:00,56.3,37.4,29.53,North,-999,-999.0,0.0,49,0.00,,,0.00,LWC V2.10 B1813,2013-10-01 07:52:00,
2013-10-01 01:57:00,56.2,37.3,29.53,North,-999,-999.0,0.0,49,0.00,,,0.00,LWC V2.10 B1813,2013-10-01 07:57:00,
2013-10-01 02:02:00,56.0,37.1,29.53,North,-999,-999.0,0.0,49,0.00,,,0.00,LWC V2.10 B1813,2013-10-01 08:02:00,
2013-10-01 02:07:00,55.9,37.0,29.53,North,-999,-999.0,0.0,49,0.00,,,0.00,LWC V2.10 B1813,2013-10-01 08:07:00,
2013-10-01 02:12:00,55.8,36.4,29.53,North,-999,-999.0,0.0,48,0.00,,,0.00,LWC V2.10 B1813,2013-10-01 08:12:00,
2013-10-01 02:17:00,55.7,36.8,29.53,North,-999,-999.0,0.0,49,0.00,,,0.00,LWC V2.10 B1813,2013-10-01 08:17:00,
2013-10-01 02:22:00,55.6,36.7,29.53,North,-999,-999.0,0.0,49,0.00,,,0.00,LWC V2.10 B1813,2013-10-01 08:22:00,
2013-10-01 02:27:00,55.6,36.7,29.53,North,-999,-999.0,0.0,49,0.00,,,0.00,LWC V2.10 B1813,2013-10-01 08:27:00,
2013-10-01 02:32:00,55.4,37.1,29.53,North,-999,-999.0,0.0,50,0.00,,,0.00,LWC V2.10 B1813,2013-10-01 08:32:00,
2013-10-01 02:37:00,55.3,36.5,29.53,North,-999,-999.0,0.0,49,0.00,,,0.00,LWC V2.10 B1813,2013-10-01 08:37:00,
2013-10-01 02:42:00,55.2,36.4,29.53,North,-999,-999.0,0.0,49,0.00,,,0.00,LWC V2.10 B1813,2013-10-01 08:42:00,
2013-10-01 02:47:00,55.1,36.3,29.53,North,-999,-999.0,0.0,49,0.00,,,0.00,LWC V2.10 B1813,2013-10-01 08:47:00,
2013-10-01 02:52:00,54.9,36.6,29.53,North,-999,-999.0,0.0,50,0.00,,,0.00,LWC V2.10 B1813,2013-10-01 08:52:00,
2013-10-01 02:57:00,54.7,36.4,29.53,North,-999,-999.0,0.0,50,0.00,,,0.00,LWC V2.10 B1813,2013-10-01 08:57:00,
2013-10-01 03:02:00,54.7,36.4,29.53,North,-999,-999.0,0.0,50,0.00,,,0.00,LWC V2.10 B1813,2013-10-01 09:02:00,
2013-10-01 03:07:00,54.6,36.3,29.53,North,-999,-999.0,0.0,50,0.00,,,0.00,LWC V2.10 B1813,2013-10-01 09:07:00,
2013-10-01 03:12:00,54.5,36.2,29.53,North,-999,-999.0,0.0,50,0.00,,,0.00,LWC V2.10 B1813,2013-10-01 09:12:00,
2013-10-01 03:17:00,54.3,36.6,29.53,North,-999,-999.0,0.0,51,0.00,,,0.00,LWC V2.10 B1813,2013-10-01 09:17:00,
2013-10-01 03:22:00,54.3,36.6,29.53,North,-999,-999.0,0.0,51,0.00,,,0.00,LWC V2.10 B1813,2013-10-01 09:22:00,
2013-10-01 03:27:00,54.2,36.5,29.53,North,-999,-999.0,0.0,51,0.00,,,0.00,LWC V2.10 B1813,2013-10-01 09:27:00,
2013-10-01 03:32:00,54.0,36.8,29.53,North,-999,-999.0,0.0,52,0.00,,,0.00,LWC V2.10 B1813,2013-10-01 09:32:00,
2013-10-01 03:37:00,53.9,36.7,29.53,North,-999,-999.0,0.0,52,0.00,,,0.00,LWC V2.10 B1813,2013-10-01 09:37:00,
2013-10-01 03:42:00,53.9,36.7,29.53,North,-999,-999.0,0.0,52,0.00,,,0.00,LWC V2.10 B1813,2013-10-01 09:42:00,
2013-10-01 03:47:00,53.8,36.6,29.53,North,-999,-999.0,0.0,52,0.00,,,0.00,LWC V2.10 B1813,2013-10-01 09:47:00,
2013-10-01 03:52:00,53.7,36.5,29.53,North,-999,-999.0,0.0,52,0.00,,,0.00,LWC V2.10 B1813,2013-10-01 09:52:00,
2013-10-01 03:57:00,53.7,36.0,29.53,North,-999,-999.0,0.0,51,0.00,,,0.00,LWC V2.10 B1813,2013-10-01 09:57:00,
2013-10-01 04:02:00,53.7,36.0,29.53,North,-999,-999.0,0.0,51,0.00,,,0.00,LWC V2.10 B1813,2013-10-01 10:02:00,
2013-10-01 04:07:00,53.7,36.0,29.53,North,-999,-999.0,0.0,51,0.00,,,0.00,LWC V2.10 B1813,2013-10-01 10:07:00,
2013-10-01 04:12:00,53.6,35.4,29.53,North,-999,-999.0,0.0,50,0.00,,,0.00,LWC V2.10 B1813,2013-10-01 10:12:00,
2013-10-01 04:17:00,53.6,35.9,29.53,North,-999,-999.0,0.0,51,0.00,,,0.00,LWC V2.10 B1813,2013-10-01 10:17:00,
2013-10-01 04:22:00,53.5,35.3,29.53,North,-999,-999.0,0.0,50,0.00,,,0.00,LWC V2.10 B1813,2013-10-01 10:22:00,
2013-10-01 04:27:00,53.3,35.6,29.53,North,-999,-999.0,0.0,51,0.00,,,0.00,LWC V2.10 B1813,2013-10-01 10:27:00,
2013-10-01 04:32:00,53.1,36.4,29.53,North,-999,-999.0,0.0,53,0.00,,,0.00,LWC V2.10 B1813,2013-10-01 10:32:00,
2013-10-01 04:37:00,53.1,35.9,29.53,North,-999,-999.0,0.0,52,0.00,,,0.00,LWC V2.10 B1813,2013-10-01 10:37:00,
2013-10-01 04:42:00,53.0,35.8,29.53,North,-999,-999.0,0.0,52,0.00,,,0.00,LWC V2.10 B1813,2013-10-01 10:42:00,
2013-10-01 04:47:00,52.8,35.7,29.53,North,-999,-999.0,0.0,52,0.00,,,0.00,LWC V2.10 B1813,2013-10-01 10:47:00,
2013-10-01 04:52:00,52.7,36.1,29.53,North,-999,-999.0,0.0,53,0.00,,,0.00,LWC V2.10 B1813,2013-10-01 10:52:00,
2013-10-01 04:57:00,52.5,35.9,29.53,North,-999,-999.0,0.0,53,0.00,,,0.00,LWC V2.10 B1813,2013-10-01 10:57:00,
2013-10-01 05:02:00,52.4,36.2,29.53,North,-999,-999.0,0.0,54,0.00,,,0.00,LWC V2.10 B1813,2013-10-01 11:02:00,
2013-10-01 05:07:00,52.5,35.9,29.53,North,-999,-999.0,0.0,53,0.00,,,0.00,LWC V2.10 B1813,2013-10-01 11:07:00,
2013-10-01 05:12:00,52.3,35.7,29.53,North,-999,-999.0,0.0,53,0.00,,,0.00,LWC V2.10 B1813,2013-10-01 11:12:00,
2013-10-01 05:17:00,52.2,35.6,29.53,North,-999,-999.0,0.0,53,0.00,,,0.00,LWC V2.10 B1813,2013-10-01 11:17:00,
2013-10-01 05:22:00,52.1,35.5,29.53,North,-999,-999.0,0.0,53,0.00,,,0.00,LWC V2.10 B1813,2013-10-01 11:22:00,
2013-10-01 05:27:00,52.0,35.9,29.53,North,-999,-999.0,0.0,54,0.00,,,0.00,LWC V2.10 B1813,2013-10-01 11:27:00,
2013-10-01 05:32:00,51.8,35.7,29.53,North,-999,-999.0,0.0,54,0.00,,,0.00,LWC V2.10 B1813,2013-10-01 11:32:00,
2013-10-01 05:37:00,51.8,35.7,29.53,North,-999,-999.0,0.0,54,0.00,,,0.00,LWC V2.10 B1813,2013-10-01 11:37:00,
2013-10-01 05:42:00,51.7,35.6,29.53,North,-999,-999.0,0.0,54,0.00,,,0.00,LWC V2.10 B1813,2013-10-01 11:42:00,
2013-10-01 05:47:00,51.6,36.0,29.53,North,-999,-999.0,0.0,55,0.00,,,0.00,LWC V2.10 B1813,2013-10-01 11:47:00,
2013-10-01 05:52:00,51.5,36.3,29.53,North,-999,-999.0,0.0,56,0.00,,,0.00,LWC V2.10 B1813,2013-10-01 11:52:00,
2013-10-01 05:57:00,51.5,36.3,29.53,North,-999,-999.0,0.0,56,0.00,,,0.00,LWC V2.10 B1813,2013-10-01 11:57:00,
2013-10-01 06:02:00,51.3,36.1,29.53,North,-999,-999.0,0.0,56,0.00,,,0.00,LWC V2.10 B1813,2013-10-01 12:02:00,
2013-10-01 06:08:00,51.2,36.5,29.53,North,-999,-999.0,0.0,57,0.00,,,0.00,LWC V2.10 B1813,2013-10-01 12:08:00,
2013-10-01 06:13:00,51.2,36.0,29.53,North,-999,-999.0,0.0,56,0.00,,,0.00,LWC V2.10 B1813,2013-10-01 12:13:00,
2013-10-01 06:18:00,51.1,36.4,29.53,North,-999,-999.0,0.0,57,0.00,,,0.00,LWC V2.10 B1813,2013-10-01 12:18:00,
2013-10-01 06:23:00,51.0,36.3,29.53,North,-999,-999.0,0.0,57,0.00,,,0.00,LWC V2.10 B1813,2013-10-01 12:23:00,
2013-10-01 06:28:00,50.8,35.7,29.53,North,-999,-999.0,0.0,56,0.00,,,0.00,LWC V2.10 B1813,2013-10-01 12:28:00,
2013-10-01 06:33:00,50.8,35.7,29.53,North,-999,-999.0,0.0,56,0.00,,,0.00,LWC V2.10 B1813,2013-10-01 12:33:00,
2013-10-01 06:38:00,50.7,35.6,29.53,North,-999,-999.0,0.0,56,0.00,,,0.00,LWC V2.10 B1813,2013-10-01 12:38:00,
2013-10-01 06:43:00,50.6,35.9,29.53,North,-999,-999.0,0.0,57,0.00,,,0.00,LWC V2.10 B1813,2013-10-01 12:43:00,
2013-10-01 06:48:00,50.6,35.5,29.53,North,-999,-999.0,0.0,56,0.00,,,0.00,LWC V2.10 B1813,2013-10-01 12:48:00,
2013-10-01 06:53:00,50.4,34.8,29.53,North,-999,-999.0,0.0,55,0.00,,,0.00,LWC V2.10 B1813,2013-10-01 12:53:00,
2013-10-01 06:58:00,50.5,35.4,29.53,North,-999,-999.0,0.0,56,0.00,,,0.00,LWC V2.10 B1813,2013-10-01 12:58:00,
2013-10-01 07:03:00,50.4,34.8,29.53,North,-999,-999.0,0.0,55,0.00,,,0.00,LWC V2.10 B1813,2013-10-01 13:03:00,
2013-10-01 07:08:00,50.3,35.2,29.53,North,-999,-999.0,0.0,56,0.00,,,0.00,LWC V2.10 B1813,2013-10-01 13:08:00,
2013-10-01 07:13:00,50.4,34.8,29.53,North,-999,-999.0,0.0,55,0.00,,,0.00,LWC V2.10 B1813,2013-10-01 13:13:00,
2013-10-01 07:18:00,50.4,35.3,29.53,North,-999,-999.0,0.0,56,0.00,,,0.00,LWC V2.10 B1813,2013-10-01 13:18:00,
2013-10-01 07:23:00,50.3,35.2,29.53,North,-999,-999.0,0.0,56,0.00,,,0.00,LWC V2.10 B1813,2013-10-01 13:23:00,
2013-10-01 07:28:00,50.2,35.1,29.53,North,-999,-999.0,0.0,56,0.00,,,0.00,LWC V2.10 B1813,2013-10-01 13:28:00,
2013-10-01 07:33:00,50.3,35.2,29.53,North,-999,-999.0,0.0,56,0.00,,,0.00,LWC V2.10 B1813,2013-10-01 13:33:00,
2013-10-01 07:38:00,50.4,35.7,29.53,North,-999,-999.0,0.0,57,0.00,,,0.00,LWC V2.10 B1813,2013-10-01 13:38:00,
2013-10-01 07:43:00,50.5,36.3,29.53,North,-999,-999.0,0.0,58,0.00,,,0.00,LWC V2.10 B1813,2013-10-01 13:43:00,
2013-10-01 07:48:00,50.6,36.4,29.53,North,-999,-999.0,0.0,58,0.00,,,0.00,LWC V2.10 B1813,2013-10-01 13:48:00,
2013-10-01 07:53:00,50.8,37.0,29.53,North,-999,-999.0,0.0,59,0.00,,,0.00,LWC V2.10 B1813,2013-10-01 13:53:00,
2013-10-01 07:58:00,51.0,36.7,29.53,North,-999,-999.0,0.0,58,0.00,,,0.00,LWC V2.10 B1813,2013-10-01 13:58:00,
2013-10-01 08:03:00,51.3,37.0,29.53,North,-999,-999.0,0.0,58,0.00,,,0.00,LWC V2.10 B1813,2013-10-01 14:03:00,
2013-10-01 08:08:00,51.5,37.2,29.53,North,-999,-999.0,0.0,58,0.00,,,0.00,LWC V2.10 B1813,2013-10-01 14:08:00,
2013-10-01 08:14:00,51.8,37.9,29.53,North,-999,-999.0,0.0,59,0.00,,,0.00,LWC V2.10 B1813,2013-10-01 14:14:00,
2013-10-01 08:19:00,52.5,37.3,29.53,North,-999,-999.0,0.0,56,0.00,,,0.00,LWC V2.10 B1813,2013-10-01 14:19:00,
2013-10-01 08:24:00,53.3,36.1,29.53,North,-999,-999.0,0.0,52,0.00,,,0.00,LWC V2.10 B1813,2013-10-01 14:24:00,
2013-10-01 08:29:00,54.2,33.9,29.53,North,-999,-999.0,0.0,46,0.00,,,0.00,LWC V2.10 B1813,2013-10-01 14:29:00,
2013-10-01 08:33:00,55.0,35.1,29.53,North,-999,-999.0,0.0,47,0.00,,,0.00,LWC V2.10 B1813,2013-10-01 14:33:00,
2013-10-01 08:38:00,55.8,33.6,29.53,North,-999,-999.0,0.0,43,0.00,,,0.00,LWC V2.10 B1813,2013-10-01 14:38:00,
2013-10-01 08:44:00,56.4,33.0,29.53,North,-999,-999.0,0.0,41,0.00,,,0.00,LWC V2.10 B1813,2013-10-01 14:44:00,
2013-10-01 08:49:00,57.0,32.3,29.53,North,-999,-999.0,0.0,39,0.00,,,0.00,LWC V2.10 B1813,2013-10-01 14:49:00,
2013-10-01 08:54:00,57.3,31.9,29.53,North,-999,-999.0,0.0,38,0.00,,,0.00,LWC V2.10 B1813,2013-10-01 14:54:00,
2013-10-01 08:59:00,57.5,32.1,29.53,North,-999,-999.0,0.0,38,0.00,,,0.00,LWC V2.10 B1813,2013-10-01 14:59:00,
2013-10-01 09:03:00,57.7,32.3,29.53,North,-999,-999.0,0.0,38,0.00,,,0.00,LWC V2.10 B1813,2013-10-01 15:03:00,
2013-10-01 09:08:00,58.1,32.0,29.53,North,-999,-999.0,0.0,37,0.00,,,0.00,LWC V2.10 B1813,2013-10-01 15:08:00,
2013-10-01 09:14:00,58.5,31.6,29.53,North,-999,-999.0,0.0,36,0.00,,,0.00,LWC V2.10 B1813,2013-10-01 15:14:00,
2013-10-01 09:19:00,58.8,30.5,29.53,North,-999,-999.0,0.0,34,0.00,,,0.00,LWC V2.10 B1813,2013-10-01 15:19:00,
2013-10-01 09:24:00,58.8,31.2,29.53,North,-999,-999.0,0.0,35,0.00,,,0.00,LWC V2.10 B1813,2013-10-01 15:24:00,
2013-10-01 09:29:00,59.0,29.9,29.53,North,-999,-999.0,0.0,33,0.00,,,0.00,LWC V2.10 B1813,2013-10-01 15:29:00,
2013-10-01 09:34:00,59.5,29.6,29.53,North,-999,-999.0,0.0,32,0.00,,,0.00,LWC V2.10 B1813,2013-10-01 15:34:00,
2013-10-01 09:39:00,59.7,29.0,29.53,North,-999,-999.0,0.0,31,0.00,,,0.00,LWC V2.10 B1813,2013-10-01 15:39:00,
2013-10-01 09:44:00,59.9,30.0,29.53,North,-999,-999.0,0.0,32,0.00,,,0.00,LWC V2.10 B1813,2013-10-01 15:44:00,
2013-10-01 09:49:00,60.0,30.1,29.53,North,-999,-999.0,0.0,32,0.00,,,0.00,LWC V2.10 B1813,2013-10-01 15:49:00,
2013-10-01 09:54:00,60.1,27.7,29.53,North,-999,-999.0,0.0,29,0.00,,,0.00,LWC V2.10 B1813,2013-10-01 15:54:00,
2013-10-01 09:59:00,60.2,28.7,29.53,North,-999,-999.0,0.0,30,0.00,,,0.00,LWC V2.10 B1813,2013-10-01 15:59:00,
2013-10-01 10:04:00,60.5,27.2,29.53,North,-999,-999.0,0.0,28,0.00,,,0.00,LWC V2.10 B1813,2013-10-01 16:04:00,
2013-10-01 10:09:00,60.7,29.1,29.53,North,-999,-999.0,0.0,30,0.00,,,0.00,LWC V2.10 B1813,2013-10-01 16:09:00,
2013-10-01 10:14:00,60.8,29.2,29.53,North,-999,-999.0,0.0,30,0.00,,,0.00,LWC V2.10 B1813,2013-10-01 16:14:00,
2013-10-01 10:19:00,61.0,27.7,29.53,North,-999,-999.0,0.0,28,0.00,,,0.00,LWC V2.10 B1813,2013-10-01 16:19:00,
2013-10-01 10:24:00,61.3,27.9,29.53,North,-999,-999.0,0.0,28,0.00,,,0.00,LWC V2.10 B1813,2013-10-01 16:24:00,
2013-10-01 10:29:00,61.4,28.0,29.53,North,-999,-999.0,0.0,28,0.00,,,0.00,LWC V2.10 B1813,2013-10-01 16:29:00,
2013-10-01 10:31:00,61.4,27.1,29.53,North,-999,-999.0,0.0,27,0.00,,,0.00,LWC V2.10 B1813,2013-10-01 16:31:00,
2013-10-01 10:36:00,61.7,28.3,29.53,North,-999,-999.0,0.0,28,0.00,,,0.00,LWC V2.10 B1813,2013-10-01 16:36:00,
2013-10-01 10:41:00,61.8,28.4,29.53,North,-999,-999.0,0.0,28,0.00,,,0.00,LWC V2.10 B1813,2013-10-01 16:41:00,
2013-10-01 10:46:00,62.0,27.6,29.53,North,-999,-999.0,0.0,27,0.00,,,0.00,LWC V2.10 B1813,2013-10-01 16:46:00,
2013-10-01 10:51:00,62.2,27.8,29.53,North,-999,-999.0,0.0,27,0.00,,,0.00,LWC V2.10 B1813,2013-10-01 16:51:00,
2013-10-01 10:56:00,62.3,28.8,29.53,North,-999,-999.0,0.0,28,0.00,,,0.00,LWC V2.10 B1813,2013-10-01 16:56:00,
2013-10-01 11:01:00,62.6,28.2,29.53,North,-999,-999.0,0.0,27,0.00,,,0.00,LWC V2.10 B1813,2013-10-01 17:01:00,
2013-10-01 11:06:00,62.8,28.3,29.53,North,-999,-999.0,0.0,27,0.00,,,0.00,LWC V2.10 B1813,2013-10-01 17:06:00,
2013-10-01 11:11:00,63.0,28.5,29.53,North,-999,-999.0,0.0,27,0.00,,,0.00,LWC V2.10 B1813,2013-10-01 17:11:00,
2013-10-01 11:16:00,63.0,28.5,29.53,North,-999,-999.0,0.0,27,0.00,,,0.00,LWC V2.10 B1813,2013-10-01 17:16:00,
2013-10-01 11:21:00,63.1,28.6,29.53,North,-999,-999.0,0.0,27,0.00,,,0.00,LWC V2.10 B1813,2013-10-01 17:21:00,
2013-10-01 11:26:00,63.5,28.9,29.53,North,-999,-999.0,0.0,27,0.00,,,0.00,LWC V2.10 B1813,2013-10-01 17:26:00,
2013-10-01 11:31:00,63.9,28.3,29.53,North,-999,-999.0,0.0,26,0.00,,,0.00,LWC V2.10 B1813,2013-10-01 17:31:00,
2013-10-01 11:36:00,64.2,29.5,29.53,North,-999,-999.0,0.0,27,0.00,,,0.00,LWC V2.10 B1813,2013-10-01 17:36:00,
2013-10-01 11:41:00,64.5,29.8,29.53,North,-999,-999.0,0.0,27,0.00,,,0.00,LWC V2.10 B1813,2013-10-01 17:41:00,
2013-10-01 11:46:00,64.8,30.0,29.53,North,-999,-999.0,0.0,27,0.00,,,0.00,LWC V2.10 B1813,2013-10-01 17:46:00,
2013-10-01 11:51:00,64.9,30.1,29.53,North,-999,-999.0,0.0,27,0.00,,,0.00,LWC V2.10 B1813,2013-10-01 17:51:00,
2013-10-01 11:56:00,65.3,30.5,29.53,North,-999,-999.0,0.0,27,0.00,,,0.00,LWC V2.10 B1813,2013-10-01 17:56:00,
2013-10-01 12:01:00,65.4,30.5,29.53,North,-999,-999.0,0.0,27,0.00,,,0.00,LWC V2.10 B1813,2013-10-01 18:01:00,
2013-10-01 12:06:00,65.7,30.8,29.53,North,-999,-999.0,0.0,27,0.00,,,0.00,LWC V2.10 B1813,2013-10-01 18:06:00,
2013-10-01 12:11:00,65.7,29.9,29.53,North,-999,-999.0,0.0,26,0.00,,,0.00,LWC V2.10 B1813,2013-10-01 18:11:00,
2013-10-01 12:16:00,66.1,31.1,29.53,North,-999,-999.0,0.0,27,0.00,,,0.00,LWC V2.10 B1813,2013-10-01 18:16:00,
2013-10-01 12:21:00,66.5,31.5,29.53,North,-999,-999.0,0.0,27,0.00,,,0.00,LWC V2.10 B1813,2013-10-01 18:21:00,
2013-10-01 12:26:00,66.6,30.6,29.53,North,-999,-999.0,0.0,26,0.00,,,0.00,LWC V2.10 B1813,2013-10-01 18:26:00,
2013-10-01 12:31:00,66.5,30.6,29.53,North,-999,-999.0,0.0,26,0.00,,,0.00,LWC V2.10 B1813,2013-10-01 18:31:00,
2013-10-01 12:36:00,67.0,31.0,29.53,North,-999,-999.0,0.0,26,0.00,,,0.00,LWC V2.10 B1813,2013-10-01 18:36:00,
2013-10-01 12:41:00,67.2,31.2,29.53,North,-999,-999.0,0.0,26,0.00,,,0.00,LWC V2.10 B1813,2013-10-01 18:41:00,
2013-10-01 12:46:00,67.4,32.3,29.53,North,-999,-999.0,0.0,27,0.00,,,0.00,LWC V2.10 B1813,2013-10-01 18:46:00,
2013-10-01 12:51:00,67.5,30.4,29.53,North,-999,-999.0,0.0,25,0.00,,,0.00,LWC V2.10 B1813,2013-10-01 18:51:00,
2013-10-01 12:56:00,67.7,32.5,29.53,North,-999,-999.0,0.0,27,0.00,,,0.00,LWC V2.10 B1813,2013-10-01 18:56:00,
2013-10-01 13:01:00,67.7,32.5,29.53,North,-999,-999.0,0.0,27,0.00,,,0.00,LWC V2.10 B1813,2013-10-01 19:01:00,
2013-10-01 13:06:00,67.7,32.5,29.53,North,-999,-999.0,0.0,27,0.00,,,0.00,LWC V2.10 B1813,2013-10-01 19:06:00,
2013-10-01 13:11:00,67.9,32.7,29.53,North,-999,-999.0,0.0,27,0.00,,,0.00,LWC V2.10 B1813,2013-10-01 19:11:00,
2013-10-01 13:16:00,68.3,31.1,29.53,North,-999,-999.0,0.0,25,0.00,,,0.00,LWC V2.10 B1813,2013-10-01 19:16:00,
2013-10-01 13:21:00,68.3,32.1,29.53,North,-999,-999.0,0.0,26,0.00,,,0.00,LWC V2.10 B1813,2013-10-01 19:21:00,
2013-10-01 13:26:00,68.3,32.1,29.53,North,-999,-999.0,0.0,26,0.00,,,0.00,LWC V2.10 B1813,2013-10-01 19:26:00,
2013-10-01 13:31:00,68.6,30.4,29.53,North,-999,-999.0,0.0,24,0.00,,,0.00,LWC V2.10 B1813,2013-10-01 19:31:00,
2013-10-01 13:36:00,68.6,31.4,29.53,North,-999,-999.0,0.0,25,0.00,,,0.00,LWC V2.10 B1813,2013-10-01 19:36:00,
2013-10-01 13:41:00,68.8,32.5,29.53,North,-999,-999.0,0.0,26,0.00,,,0.00,LWC V2.10 B1813,2013-10-01 19:41:00,
2013-10-01 13:46:00,68.9,31.6,29.53,North,-999,-999.0,0.0,25,0.00,,,0.00,LWC V2.10 B1813,2013-10-01 19:46:00,
2013-10-01 13:51:00,69.2,30.9,29.53,North,-999,-999.0,0.0,24,0.00,,,0.00,LWC V2.10 B1813,2013-10-01 19:51:00,
2013-10-01 13:56:00,69.5,31.1,29.53,North,-999,-999.0,0.0,24,0.00,,,0.00,LWC V2.10 B1813,2013-10-01 19:56:00,
2013-10-01 14:01:00,69.7,31.3,29.53,North,-999,-999.0,0.0,24,0.00,,,0.00,LWC V2.10 B1813,2013-10-01 20:01:00,
2013-10-01 14:06:00,69.9,30.4,29.53,North,-999,-999.0,0.0,23,0.00,,,0.00,LWC V2.10 B1813,2013-10-01 20:06:00,
2013-10-01 14:11:00,70.0,30.5,29.53,North,-999,-999.0,0.0,23,0.00,,,0.00,LWC V2.10 B1813,2013-10-01 20:11:00,
2013-10-01 14:16:00,70.1,30.6,29.53,North,-999,-999.0,0.0,23,0.00,,,0.00,LWC V2.10 B1813,2013-10-01 20:16:00,
2013-10-01 14:21:00,70.3,30.7,29.53,North,-999,-999.0,0.0,23,0.00,,,0.00,LWC V2.10 B1813,2013-10-01 20:21:00,
2013-10-01 14:26:00,70.3,31.8,29.53,North,-999,-999.0,0.0,24,0.00,,,0.00,LWC V2.10 B1813,2013-10-01 20:26:00,
2013-10-01 14:31:00,70.3,29.7,29.53,North,-999,-999.0,0.0,22,0.00,,,0.00,LWC V2.10 B1813,2013-10-01 20:31:00,
2013-10-01 14:36:00,70.4,30.8,29.53,North,-999,-999.0,0.0,23,0.00,,,0.00,LWC V2.10 B1813,2013-10-01 20:36:00,
2013-10-01 14:41:00,70.6,31.0,29.53,North,-999,-999.0,0.0,23,0.00,,,0.00,LWC V2.10 B1813,2013-10-01 20:41:00,
2013-10-01 14:46:00,71.2,29.3,29.53,North,-999,-999.0,0.0,21,0.00,,,0.00,LWC V2.10 B1813,2013-10-01 20:46:00,
2013-10-01 14:51:00,71.3,30.5,29.53,North,-999,-999.0,0.0,22,0.00,,,0.00,LWC V2.10 B1813,2013-10-01 20:51:00,
2013-10-01 14:56:00,71.2,30.4,29.53,North,-999,-999.0,0.0,22,0.00,,,0.00,LWC V2.10 B1813,2013-10-01 20:56:00,
2013-10-01 15:01:00,71.2,29.3,29.53,North,-999,-999.0,0.0,21,0.00,,,0.00,LWC V2.10 B1813,2013-10-01 21:01:00,
2013-10-01 15:06:00,71.3,28.2,29.53,North,-999,-999.0,0.0,20,0.00,,,0.00,LWC V2.10 B1813,2013-10-01 21:06:00,
2013-10-01 15:11:00,71.7,29.7,29.53,North,-999,-999.0,0.0,21,0.00,,,0.00,LWC V2.10 B1813,2013-10-01 21:11:00,
2013-10-01 15:16:00,72.1,30.0,29.53,North,-999,-999.0,0.0,21,0.00,,,0.00,LWC V2.10 B1813,2013-10-01 21:16:00,
2013-10-01 15:21:00,72.0,29.9,29.53,North,-999,-999.0,0.0,21,0.00,,,0.00,LWC V2.10 B1813,2013-10-01 21:21:00,
2013-10-01 15:26:00,72.0,27.5,29.53,North,-999,-999.0,0.0,19,0.00,,,0.00,LWC V2.10 B1813,2013-10-01 21:26:00,
2013-10-01 15:31:00,72.2,30.1,29.53,North,-999,-999.0,0.0,21,0.00,,,0.00,LWC V2.10 B1813,2013-10-01 21:31:00,
2013-10-01 15:36:00,71.9,28.6,29.53,North,-999,-999.0,0.0,20,0.00,,,0.00,LWC V2.10 B1813,2013-10-01 21:36:00,
2013-10-01 15:41:00,71.9,28.6,29.53,North,-999,-999.0,0.0,20,0.00,,,0.00,LWC V2.10 B1813,2013-10-01 21:41:00,
2013-10-01 15:46:00,71.9,29.8,29.53,North,-999,-999.0,0.0,21,0.00,,,0.00,LWC V2.10 B1813,2013-10-01 21:46:00,
2013-10-01 15:51:00,71.9,28.6,29.53,North,-999,-999.0,0.0,20,0.00,,,0.00,LWC V2.10 B1813,2013-10-01 21:51:00,
2013-10-01 15:56:00,71.9,27.4,29.53,North,-999,-999.0,0.0,19,0.00,,,0.00,LWC V2.10 B1813,2013-10-01 21:56:00,
2013-10-01 16:01:00,72.1,28.8,29.53,North,-999,-999.0,0.0,20,0.00,,,0.00,LWC V2.10 B1813,2013-10-01 22:01:00,
2013-10-01 16:06:00,72.1,27.6,29.53,North,-999,-999.0,0.0,19,0.00,,,0.00,LWC V2.10 B1813,2013-10-01 22:06:00,
2013-10-01 16:11:00,71.8,27.3,29.53,North,-999,-999.0,0.0,19,0.00,,,0.00,LWC V2.10 B1813,2013-10-01 22:11:00,
2013-10-01 16:16:00,72.2,27.6,29.53,North,-999,-999.0,0.0,19,0.00,,,0.00,LWC V2.10 B1813,2013-10-01 22:16:00,
2013-10-01 16:22:00,72.1,27.6,29.53,North,-999,-999.0,0.0,19,0.00,,,0.00,LWC V2.10 B1813,2013-10-01 22:22:00,
2013-10-01 16:27:00,72.2,28.9,29.53,North,-999,-999.0,0.0,20,0.00,,,0.00,LWC V2.10 B1813,2013-10-01 22:27:00,
2013-10-01 16:32:00,72.0,27.5,29.53,North,-999,-999.0,0.0,19,0.00,,,0.00,LWC V2.10 B1813,2013-10-01 22:32:00,
2013-10-01 16:37:00,71.9,27.4,29.53,North,-999,-999.0,0.0,19,0.00,,,0.00,LWC V2.10 B1813,2013-10-01 22:37:00,
2013-10-01 16:42:00,71.9,24.7,29.53,North,-999,-999.0,0.0,17,0.00,,,0.00,LWC V2.10 B1813,2013-10-01 22:42:00,
2013-10-01 16:47:00,72.0,27.5,29.53,North,-999,-999.0,0.0,19,0.00,,,0.00,LWC V2.10 B1813,2013-10-01 22:47:00,
2013-10-01 16:52:00,72.0,27.5,29.53,North,-999,-999.0,0.0,19,0.00,,,0.00,LWC V2.10 B1813,2013-10-01 22:52:00,
2013-10-01 16:57:00,71.8,27.3,29.53,North,-999,-999.0,0.0,19,0.00,,,0.00,LWC V2.10 B1813,2013-10-01 22:57:00,
2013-10-01 17:02:00,71.9,26.1,29.53,North,-999,-999.0,0.0,18,0.00,,,0.00,LWC V2.10 B1813,2013-10-01 23:02:00,
2013-10-01 17:07:00,71.7,28.5,29.53,North,-999,-999.0,0.0,20,0.00,,,0.00,LWC V2.10 B1813,2013-10-01 23:07:00,
2013-10-01 17:12:00,71.9,27.4,29.53,North,-999,-999.0,0.0,19,0.00,,,0.00,LWC V2.10 B1813,2013-10-01 23:12:00,
2013-10-01 17:17:00,72.0,27.5,29.53,North,-999,-999.0,0.0,19,0.00,,,0.00,LWC V2.10 B1813,2013-10-01 23:17:00,
2013-10-01 17:20:00,71.9,27.4,29.53,North,-999,-999.0,0.0,19,0.00,,,0.00,LWC V2.10 B1813,2013-10-01 23:20:00,
2013-10-01 17:25:00,71.9,27.4,29.53,North,-999,-999.0,0.0,19,0.00,,,0.00,LWC V2.10 B1813,2013-10-01 23:25:00,
2013-10-01 17:30:00,71.7,27.2,29.53,North,-999,-999.0,0.0,19,0.00,,,0.00,LWC V2.10 B1813,2013-10-01 23:30:00,
2013-10-01 17:35:00,71.8,27.3,29.53,North,-999,-999.0,0.0,19,0.00,,,0.00,LWC V2.10 B1813,2013-10-01 23:35:00,
2013-10-01 17:40:00,71.8,27.3,29.53,North,-999,-999.0,0.0,19,0.00,,,0.00,LWC V2.10 B1813,2013-10-01 23:40:00,
2013-10-01 17:45:00,72.2,27.6,29.53,North,-999,-999.0,0.0,19,0.00,,,0.00,LWC V2.10 B1813,2013-10-01 23:45:00,
2013-10-01 17:50:00,72.3,27.7,29.53,North,-999,-999.0,0.0,19,0.00,,,0.00,LWC V2.10 B1813,2013-10-01 23:50:00,
2013-10-01 17:55:00,72.3,27.7,29.53,North,-999,-999.0,0.0,19,0.00,,,0.00,LWC V2.10 B1813,2013-10-01 23:55:00,
2013-10-01 18:00:00,72.2,27.6,29.53,North,-999,-999.0,0.0,19,0.00,,,0.00,LWC V2.10 B1813,2013-10-02 00:00:00,
2013-10-01 18:05:00,72.0,27.5,29.53,North,-999,-999.0,0.0,19,0.00,,,0.00,LWC V2.10 B1813,2013-10-02 00:05:00,
2013-10-01 18:10:00,71.7,27.2,29.53,North,-999,-999.0,0.0,19,0.00,,,0.00,LWC V2.10 B1813,2013-10-02 00:10:00,
2013-10-01 18:15:00,71.5,27.1,29.53,North,-999,-999.0,0.0,19,0.00,,,0.00,LWC V2.10 B1813,2013-10-02 00:15:00,
2013-10-01 18:16:00,71.5,27.1,29.53,North,-999,-999.0,0.0,19,0.00,,,0.00,LWC V2.10 B1813,2013-10-02 00:16:00,
2013-10-01 18:21:00,71.3,26.9,29.53,North,-999,-999.0,0.0,19,0.00,,,0.00,LWC V2.10 B1813,2013-10-02 00:21:00,
2013-10-01 18:26:00,71.1,26.7,29.53,North,-999,-999.0,0.0,19,0.00,,,0.00,LWC V2.10 B1813,2013-10-02 00:26:00,
2013-10-01 18:31:00,70.7,27.7,29.53,North,-999,-999.0,0.0,20,0.00,,,0.00,LWC V2.10 B1813,2013-10-02 00:31:00,
2013-10-01 18:36:00,70.3,28.5,29.53,North,-999,-999.0,0.0,21,0.00,,,0.00,LWC V2.10 B1813,2013-10-02 00:36:00,
2013-10-01 18:41:00,69.8,29.2,29.53,North,-999,-999.0,0.0,22,0.00,,,0.00,LWC V2.10 B1813,2013-10-02 00:41:00,
2013-10-01 18:46:00,69.4,28.9,29.53,North,-999,-999.0,0.0,22,0.00,,,0.00,LWC V2.10 B1813,2013-10-02 00:46:00,
2013-10-01 18:51:00,69.1,29.7,29.53,North,-999,-999.0,0.0,23,0.00,,,0.00,LWC V2.10 B1813,2013-10-02 00:51:00,
2013-10-01 18:56:00,68.8,30.5,29.53,North,-999,-999.0,0.0,24,0.00,,,0.00,LWC V2.10 B1813,2013-10-02 00:56:00,
2013-10-01 19:01:00,68.5,31.3,29.53,North,-999,-999.0,0.0,25,0.00,,,0.00,LWC V2.10 B1813,2013-10-02 01:01:00,
2013-10-01 19:06:00,68.1,32.9,29.53,North,-999,-999.0,0.0,27,0.00,,,0.00,LWC V2.10 B1813,2013-10-02 01:06:00,
2013-10-01 19:11:00,67.8,32.6,29.53,North,-999,-999.0,0.0,27,0.00,,,0.00,LWC V2.10 B1813,2013-10-02 01:11:00,
2013-10-01 19:16:00,67.6,33.3,29.53,North,-999,-999.0,0.0,28,0.00,,,0.00,LWC V2.10 B1813,2013-10-02 01:16:00,
2013-10-01 19:21:00,67.2,33.0,29.53,North,-999,-999.0,0.0,28,0.00,,,0.00,LWC V2.10 B1813,2013-10-02 01:21:00,
2013-10-01 19:26:00,67.0,34.5,29.53,North,-999,-999.0,0.0,30,0.00,,,0.00,LWC V2.10 B1813,2013-10-02 01:26:00,
2013-10-01 19:31:00,66.7,35.1,29.53,North,-999,-999.0,0.0,31,0.00,,,0.00,LWC V2.10 B1813,2013-10-02 01:31:00,
2013-10-01 19:36:00,66.6,35.8,29.53,North,-999,-999.0,0.0,32,0.00,,,0.00,LWC V2.10 B1813,2013-10-02 01:36:00,
2013-10-01 19:41:00,66.2,34.7,29.53,North,-999,-999.0,0.0,31,0.00,,,0.00,LWC V2.10 B1813,2013-10-02 01:41:00,
2013-10-01 19:46:00,66.2,35.5,29.53,North,-999,-999.0,0.0,32,0.00,,,0.00,LWC V2.10 B1813,2013-10-02 01:46:00,
2013-10-01 19:51:00,65.9,35.2,29.53,North,-999,-999.0,0.0,32,0.00,,,0.00,LWC V2.10 B1813,2013-10-02 01:51:00,
2013-10-01 19:56:00,65.7,35.8,29.53,North,-999,-999.0,0.0,33,0.00,,,0.00,LWC V2.10 B1813,2013-10-02 01:56:00,
2013-10-01 20:01:00,65.5,35.6,29.53,North,-999,-999.0,0.0,33,0.00,,,0.00,LWC V2.10 B1813,2013-10-02 02:01:00,
2013-10-01 20:06:00,65.4,35.5,29.53,North,-999,-999.0,0.0,33,0.00,,,0.00,LWC V2.10 B1813,2013-10-02 02:06:00,
2013-10-01 20:11:00,65.3,34.7,29.53,North,-999,-999.0,0.0,32,0.00,,,0.00,LWC V2.10 B1813,2013-10-02 02:11:00,
2013-10-01 20:16:00,65.4,34.8,29.53,North,-999,-999.0,0.0,32,0.00,,,0.00,LWC V2.10 B1813,2013-10-02 02:16:00,
2013-10-01 20:21:00,65.3,33.9,29.53,North,-999,-999.0,0.0,31,0.00,,,0.00,LWC V2.10 B1813,2013-10-02 02:21:00,
2013-10-01 20:26:00,65.2,35.4,29.53,North,-999,-999.0,0.0,33,0.00,,,0.00,LWC V2.10 B1813,2013-10-02 02:26:00,
2013-10-01 20:31:00,64.9,35.1,29.53,North,-999,-999.0,0.0,33,0.00,,,0.00,LWC V2.10 B1813,2013-10-02 02:31:00,
2013-10-01 20:36:00,64.9,35.1,29.53,North,-999,-999.0,0.0,33,0.00,,,0.00,LWC V2.10 B1813,2013-10-02 02:36:00,
2013-10-01 20:41:00,64.6,34.8,29.53,North,-999,-999.0,0.0,33,0.00,,,0.00,LWC V2.10 B1813,2013-10-02 02:41:00,
2013-10-01 20:46:00,64.6,35.6,29.53,North,-999,-999.0,0.0,34,0.00,,,0.00,LWC V2.10 B1813,2013-10-02 02:46:00,
2013-10-01 20:51:00,64.2,36.0,29.53,North,-999,-999.0,0.0,35,0.00,,,0.00,LWC V2.10 B1813,2013-10-02 02:51:00,
2013-10-01 20:56:00,64.0,36.5,29.53,North,-999,-999.0,0.0,36,0.00,,,0.00,LWC V2.10 B1813,2013-10-02 02:56:00,
2013-10-01 21:01:00,63.8,36.3,29.53,North,-999,-999.0,0.0,36,0.00,,,0.00,LWC V2.10 B1813,2013-10-02 03:01:00,
2013-10-01 21:06:00,63.6,35.4,29.53,North,-999,-999.0,0.0,35,0.00,,,0.00,LWC V2.10 B1813,2013-10-02 03:06:00,
2013-10-01 21:11:00,63.6,34.7,29.53,North,-999,-999.0,0.0,34,0.00,,,0.00,LWC V2.10 B1813,2013-10-02 03:11:00,
2013-10-01 21:16:00,63.4,36.0,29.53,North,-999,-999.0,0.0,36,0.00,,,0.00,LWC V2.10 B1813,2013-10-02 03:16:00,
2013-10-01 21:21:00,63.3,35.9,29.53,North,-999,-999.0,0.0,36,0.00,,,0.00,LWC V2.10 B1813,2013-10-02 03:21:00,
2013-10-01 21:26:00,63.0,35.6,29.53,North,-999,-999.0,0.0,36,0.00,,,0.00,LWC V2.10 B1813,2013-10-02 03:26:00,
2013-10-01 21:31:00,62.9,35.5,29.53,North,-999,-999.0,0.0,36,0.00,,,0.00,LWC V2.10 B1813,2013-10-02 03:31:00,
2013-10-01 21:36:00,62.8,35.4,29.53,North,-999,-999.0,0.0,36,0.00,,,0.00,LWC V2.10 B1813,2013-10-02 03:36:00,
2013-10-01 21:41:00,62.5,35.9,29.53,North,-999,-999.0,0.0,37,0.00,,,0.00,LWC V2.10 B1813,2013-10-02 03:41:00,
2013-10-01 21:46:00,62.4,35.8,29.53,North,-999,-999.0,0.0,37,0.00,,,0.00,LWC V2.10 B1813,2013-10-02 03:46:00,
2013-10-01 21:51:00,62.3,36.4,29.53,North,-999,-999.0,0.0,38,0.00,,,0.00,LWC V2.10 B1813,2013-10-02 03:51:00,
2013-10-01 21:56:00,62.2,36.3,29.53,North,-999,-999.0,0.0,38,0.00,,,0.00,LWC V2.10 B1813,2013-10-02 03:56:00,
2013-10-01 22:01:00,62.0,36.1,29.53,North,-999,-999.0,0.0,38,0.00,,,0.00,LWC V2.10 B1813,2013-10-02 04:01:00,
2013-10-01 22:06:00,61.9,36.0,29.53,North,-999,-999.0,0.0,38,0.00,,,0.00,LWC V2.10 B1813,2013-10-02 04:06:00,
2013-10-01 22:11:00,61.8,36.6,29.53,North,-999,-999.0,0.0,39,0.00,,,0.00,LWC V2.10 B1813,2013-10-02 04:11:00,
2013-10-01 22:16:00,61.6,36.4,29.53,North,-999,-999.0,0.0,39,0.00,,,0.00,LWC V2.10 B1813,2013-10-02 04:16:00,
2013-10-01 22:21:00,61.5,36.3,29.53,North,-999,-999.0,0.0,39,0.00,,,0.00,LWC V2.10 B1813,2013-10-02 04:21:00,
2013-10-01 22:26:00,61.4,36.9,29.53,North,-999,-999.0,0.0,40,0.00,,,0.00,LWC V2.10 B1813,2013-10-02 04:26:00,
2013-10-01 22:31:00,61.3,35.5,29.53,North,-999,-999.0,0.0,38,0.00,,,0.00,LWC V2.10 B1813,2013-10-02 04:31:00,
2013-10-01 22:36:00,61.2,36.0,29.53,North,-999,-999.0,0.0,39,0.00,,,0.00,LWC V2.10 B1813,2013-10-02 04:36:00,
2013-10-01 22:41:00,61.2,36.7,29.53,North,-999,-999.0,0.0,40,0.00,,,0.00,LWC V2.10 B1813,2013-10-02 04:41:00,
2013-10-01 22:46:00,61.1,36.0,29.53,North,-999,-999.0,0.0,39,0.00,,,0.00,LWC V2.10 B1813,2013-10-02 04:46:00,
2013-10-01 22:51:00,61.0,35.9,29.53,North,-999,-999.0,0.0,39,0.00,,,0.00,LWC V2.10 B1813,2013-10-02 04:51:00,
2013-10-01 22:56:00,60.7,36.2,29.53,North,-999,-999.0,0.0,40,0.00,,,0.00,LWC V2.10 B1813,2013-10-02 04:56:00,
2013-10-01 23:01:00,60.6,35.5,29.53,North,-999,-999.0,0.0,39,0.00,,,0.00,LWC V2.10 B1813,2013-10-02 05:01:00,
2013-10-01 23:06:00,60.4,34.7,29.53,North,-999,-999.0,0.0,38,0.00,,,0.00,LWC V2.10 B1813,2013-10-02 05:06:00,
2013-10-01 23:11:00,60.3,35.9,29.53,North,-999,-999.0,0.0,40,0.00,,,0.00,LWC V2.10 B1813,2013-10-02 05:11:00,
2013-10-01 23:16:00,60.1,35.7,29.53,North,-999,-999.0,0.0,40,0.00,,,0.00,LWC V2.10 B1813,2013-10-02 05:16:00,
2013-10-01 23:21:00,60.0,35.6,29.53,North,-999,-999.0,0.0,40,0.00,,,0.00,LWC V2.10 B1813,2013-10-02 05:21:00,
2013-10-01 23:26:00,59.9,35.5,29.53,North,-999,-999.0,0.0,40,0.00,,,0.00,LWC V2.10 B1813,2013-10-02 05:26:00,
2013-10-01 23:31:00,60.0,36.2,29.53,North,-999,-999.0,0.0,41,0.00,,,0.00,LWC V2.10 B1813,2013-10-02 05:31:00,
2013-10-01 23:36:00,59.8,34.8,29.53,North,-999,-999.0,0.0,39,0.00,,,0.00,LWC V2.10 B1813,2013-10-02 05:36:00,
2013-10-01 23:41:00,59.6,35.2,29.53,North,-999,-999.0,0.0,40,0.00,,,0.00,LWC V2.10 B1813,2013-10-02 05:41:00,
2013-10-01 23:46:00,59.4,35.7,29.53,North,-999,-999.0,0.0,41,0.00,,,0.00,LWC V2.10 B1813,2013-10-02 05:46:00,
2013-10-01 23:51:00,59.3,35.6,29.53,North,-999,-999.0,0.0,41,0.00,,,0.00,LWC V2.10 B1813,2013-10-02 05:51:00,
2013-10-01 23:56:00,59.1,34.8,29.53,North,-999,-999.0,0.0,40,0.00,,,0.00,LWC V2.10 B1813,2013-10-02 05:56:00,